ORBCOMM FM06

Last updated on Wed Sep 23 2026 00:03:43 GMT+0000 (Coordinated Universal Time)

1 25118U 97084G 26265.16586336 .00000693 00000+0 22474-3 0 9993 2 25118 45.0144 305.7762 0002111 268.0565 134.6841 14.47759140508444
UTC large
Height (km)
Speed (km/s)
/
Latitude / Longitude
Inclination (degrees)
Orbital Period (minutes)
Azimuth
Elevation
Range (km)
Doppler Factor

Next 0 passes for location: London (51.5072 / 0.1276)

No passes found over London.
ORBCOMM FM06